Location: Marengo
(51.4813°N, 109.7825°W)
Time: 20:59:59
(UTC+00:00)

Envisat - Pass Details

Date: 26 January 2022
Orbit: 764 x 765 km, 98.2° (Epoch: 21 May)

Event Time Altitude Azimuth Distance (km) Brightness Sun altitude
Rises 10:57:06 0° 26° (NNE) 3,243 6.8 -38.2°
Reaches altitude 10° 11:00:11 10° 46° (NE) 2,311 6.1 -37.8°
Maximum altitude 11:03:34 18° 88° (E) 1,834 5.5 -37.3°
Drops below altitude 10° 11:06:55 10° 130° (SE) 2,300 5.8 -36.8°
Sets 11:09:59 0° 149° (SSE) 3,221 6.4 -36.3°
